Spokane, WA

8:07 AM PDT on June 23, 2017 (GMT -0700)
Spokane International

Weather History for KGEG - August, 2014

Change the Weather History Date:

Monday, August 25, 2014

  Actual Average Record
Temperature  
Mean Temperature 68 °F 67 °F  
Max Temperature 80 °F 81 °F 98 °F (1958)
Min Temperature 55 °F 54 °F 37 °F (1910)
Degree Days  
Heating Degree Days 0 2  
Month to date heating degree days 1 21  
Since 1 June heating degree days 114 189  
Since 1 July heating degree days 8 53  
Cooling Degree Days 3 4  
Month to date cooling degree days 212 147  
Year to date cooling degree days 580 390  
Since 1 June cooling degree days 574 376  
Growing Degree Days 18 (Base 50)    
Moisture  
Dew Point 43 °F    
Average Humidity 48    
Maximum Humidity 72    
Minimum Humidity 23    
Precipitation  
Precipitation 0.00 in 0.02 in 0.50 in (1965)
Month to date precipitation 0.58 0.46  
Year to date precipitation 10.00 9.98  
Snow  
Snow 0.00 in 0.00 in 0.00 in (2002)
Month to date snowfall 0.0 0.0  
Since 1 June snowfall 0.0 0.0  
Since 1 July snowfall 0.0 0.0  
Snow Depth 0.00 in    
Sea Level Pressure  
Sea Level Pressure 29.99 in    
Wind  
Wind Speed 5 mph (NE)    
Max Wind Speed 13 mph    
Max Gust Speed 17 mph    
Visibility 10 miles    
Events      
T = Trace of Precipitation, MM = Missing Value Source: NWS Daily Summary

Daily Weather History Graph

Daily Weather History Graph

Search for Another Location

Airport or City:

Trip Planner

Search our weather history database for the weather conditions in past years. The results will help you decide how hot, cold, wet, or windy it might be!

Date:

Astronomy

Aug. 25, 2014 Rise Set
Actual Time 5:59 AM PDT 7:43 PM PDT
Civil Twilight 5:26 AM PDT 8:16 PM PDT
Nautical Twilight 4:46 AM PDT 8:56 PM PDT
Astronomical Twilight 4:02 AM PDT 9:39 PM PDT
Moon 6:13 AM PDT (8/25) 7:30 PM PDT (8/25)
Length of Visible Light 14h 49m
Length of Day
13h 44m
New Moon, 0% of the Moon is Illuminated
Aug 25
New Moon
Sep 2
First Quarter
Sep 8
Full
Sep 15
Last Quarter
Sep 23
New

Hourly Weather History & Observations

Time (PDT) Temp. Dew Point Humidity Pressure Visibility Wind Dir Wind Speed Gust Speed Precip Events Conditions
12:53 AM 61.0 °F 48.9 °F 64% 29.98 in 10.0 mi NE 6.9 mph - N/A   Partly Cloudy
1:53 AM 57.2 °F 48.2 °F 72% 30.01 in 10.0 mi NNE 5.8 mph - N/A   Partly Cloudy
2:53 AM 59.0 °F 46.9 °F 64% 29.98 in 10.0 mi ENE 4.6 mph - N/A   Partly Cloudy
3:53 AM 57.0 °F 48.0 °F 72% 29.99 in 10.0 mi ENE 4.6 mph - N/A   Partly Cloudy
4:53 AM 57.0 °F 48.0 °F 72% 29.99 in 10.0 mi NE 8.1 mph - N/A   Partly Cloudy
5:53 AM 55.9 °F 46.9 °F 72% 30.00 in 10.0 mi ENE 8.1 mph - N/A   Partly Cloudy
6:53 AM 55.4 °F 46.4 °F 72% 30.04 in 10.0 mi NE 4.6 mph - N/A   Clear
7:53 AM 59.0 °F 48.0 °F 67% 30.03 in 10.0 mi ENE 6.9 mph - N/A   Clear
8:53 AM 62.1 °F 46.9 °F 58% 30.04 in 10.0 mi Variable 6.9 mph - N/A   Partly Cloudy
9:53 AM 66.0 °F 46.9 °F 50% 30.03 in 10.0 mi NE 6.9 mph - N/A   Partly Cloudy
10:53 AM 69.1 °F 45.0 °F 42% 30.02 in 10.0 mi ENE 6.9 mph - N/A   Partly Cloudy
11:53 AM 73.0 °F 43.0 °F 34% 30.00 in 10.0 mi ENE 5.8 mph - N/A   Partly Cloudy
12:53 PM 75.0 °F 39.9 °F 28% 29.99 in 10.0 mi Variable 4.6 mph - N/A   Scattered Clouds
1:53 PM 75.0 °F 39.0 °F 27% 29.98 in 10.0 mi Calm Calm - N/A   Mostly Cloudy
2:53 PM 77.0 °F 39.9 °F 26% 29.96 in 10.0 mi North 5.8 mph - N/A   Mostly Cloudy
3:53 PM 79.0 °F 37.9 °F 23% 29.95 in 10.0 mi North 5.8 mph - N/A   Mostly Cloudy
4:53 PM 78.1 °F 37.0 °F 23% 29.95 in 10.0 mi NNW 9.2 mph - N/A   Mostly Cloudy
5:53 PM 77.0 °F 37.9 °F 24% 29.95 in 10.0 mi ENE 5.8 mph - N/A   Mostly Cloudy
6:53 PM 75.2 °F 39.2 °F 27% 29.98 in 10.0 mi East 3.5 mph - N/A   Mostly Cloudy
7:53 PM 73.4 °F 39.2 °F 29% 29.99 in 10.0 mi South 3.5 mph - N/A   Scattered Clouds
8:53 PM 69.1 °F 41.0 °F 36% 29.97 in 10.0 mi SW 3.5 mph - N/A   Partly Cloudy
9:53 PM 64.9 °F 39.9 °F 40% 29.98 in 10.0 mi SW 5.8 mph - N/A   Partly Cloudy
10:53 PM 62.1 °F 41.0 °F 46% 29.99 in 10.0 mi SW 4.6 mph - N/A   Clear
11:53 PM 62.1 °F 41.0 °F 46% 29.99 in 10.0 mi SW 4.6 mph - N/A   Clear